Location: ?
(35.4064°N, 139.3593°E)
Time: 14:51:42
(UTC+00:00)

ACS3 Solar Sail - Pass Details

Date: 28 June 2024
Orbit: 993 x 1023 km, 97.4° (Epoch: 19 July)

Event Time Altitude Azimuth Distance (km) Brightness Sun altitude
Exits shadow 12:27:01 37° 184° (S) 1,510 5.4 -22.8°
Maximum altitude 12:29:40 72° 259° (W) 1,043 4.9 -23.1°
Drops below altitude 10° 12:35:52 10° 344° (NNW) 2,762 8.2 -23.8°
Sets 12:38:22 0° 347° (NNW) 3,714 9.0 -24.0°
